Time,TemperatureF,DewpointF,PressureIn,WindDirection,WindDirectionDegrees,WindSpeedMPH,WindSpeedGustMPH,Humidity,HourlyPrecipIn,Conditions,Clouds,dailyrainin,SolarRadiationWatts/m^2,SoftwareType,DateUTC
2013-09-07 00:04:00,68.6,63.2,29.86,SSE,159,0.0,2.0,83,0.00,,,0.00,0,Wunderground v.1.15,2013-09-07 07:04:00,
2013-09-07 00:14:00,68.6,63.9,29.86,SSE,160,1.0,2.0,85,0.00,,,0.00,0,Wunderground v.1.15,2013-09-07 07:14:00,
2013-09-07 00:24:00,68.1,64.1,29.86,SSE,159,3.0,4.0,87,0.00,,,0.00,0,Wunderground v.1.15,2013-09-07 07:24:00,
2013-09-07 00:29:00,67.8,63.8,29.86,SSE,159,3.0,5.0,87,0.00,,,0.00,0,Wunderground v.1.15,2013-09-07 07:29:00,
2013-09-07 00:39:00,67.3,63.6,29.85,SSE,159,5.0,6.0,88,0.00,,,0.00,0,Wunderground v.1.15,2013-09-07 07:39:00,
2013-09-07 00:44:00,67.3,63.6,29.86,SSE,159,6.0,6.0,88,0.00,,,0.00,0,Wunderground v.1.15,2013-09-07 07:44:00,
2013-09-07 00:50:00,67.2,63.5,29.86,SSE,159,5.0,5.0,88,0.00,,,0.00,0,Wunderground v.1.15,2013-09-07 07:50:00,
2013-09-07 00:59:00,66.8,62.8,29.86,SSE,159,4.0,4.0,87,0.00,,,0.00,0,Wunderground v.1.15,2013-09-07 07:59:00,
2013-09-07 01:09:00,66.6,62.9,29.86,SSE,159,3.0,3.0,88,0.00,,,0.00,0,Wunderground v.1.15,2013-09-07 08:09:00,
2013-09-07 01:14:00,66.4,62.7,29.86,SSE,160,3.0,3.0,88,0.00,,,0.00,0,Wunderground v.1.15,2013-09-07 08:14:00,
2013-09-07 01:24:00,66.4,62.7,29.86,SSE,160,3.0,3.0,88,0.00,,,0.00,0,Wunderground v.1.15,2013-09-07 08:24:00,
2013-09-07 01:29:00,66.4,62.7,29.86,SSE,159,3.0,3.0,88,0.00,,,0.00,0,Wunderground v.1.15,2013-09-07 08:29:00,
2013-09-07 01:35:00,66.5,62.8,29.86,SSE,159,2.0,3.0,88,0.00,,,0.00,0,Wunderground v.1.15,2013-09-07 08:35:00,
2013-09-07 01:44:00,66.3,62.6,29.86,SSE,159,0.0,1.0,88,0.00,,,0.00,0,Wunderground v.1.15,2013-09-07 08:44:00,
2013-09-07 01:50:00,66.2,62.5,29.86,SSE,160,0.0,0.0,88,0.00,,,0.00,0,Wunderground v.1.15,2013-09-07 08:50:00,
2013-09-07 01:59:00,65.9,61.9,29.86,SSE,159,0.0,0.0,87,0.00,,,0.00,0,Wunderground v.1.15,2013-09-07 08:59:00,
2013-09-07 02:09:00,65.5,61.5,29.86,SSE,160,0.0,0.0,87,0.00,,,0.00,0,Wunderground v.1.15,2013-09-07 09:09:00,
2013-09-07 02:15:00,65.2,61.2,29.86,SSE,159,0.0,0.0,87,0.00,,,0.00,0,Wunderground v.1.15,2013-09-07 09:15:00,
2013-09-07 02:24:00,64.7,60.7,29.86,SSE,159,0.0,0.0,87,0.00,,,0.00,0,Wunderground v.1.15,2013-09-07 09:24:00,
2013-09-07 02:35:00,64.7,61.1,29.85,SSE,159,0.0,0.0,88,0.00,,,0.00,0,Wunderground v.1.15,2013-09-07 09:35:00,
2013-09-07 02:44:00,65.1,61.8,29.85,SSE,159,0.0,0.0,89,0.00,,,0.00,0,Wunderground v.1.15,2013-09-07 09:44:00,
2013-09-07 02:54:00,65.4,62.1,29.86,SSE,159,0.0,0.0,89,0.00,,,0.00,0,Wunderground v.1.15,2013-09-07 09:54:00,
2013-09-07 03:05:00,65.3,62.0,29.86,SSE,161,0.0,0.0,89,0.00,,,0.00,0,Wunderground v.1.15,2013-09-07 10:05:00,
2013-09-07 03:15:00,65.2,61.9,29.86,SSE,159,0.0,0.0,89,0.00,,,0.00,0,Wunderground v.1.15,2013-09-07 10:15:00,
2013-09-07 03:24:00,65.4,62.1,29.86,SSE,160,0.0,0.0,89,0.00,,,0.00,0,Wunderground v.1.15,2013-09-07 10:24:00,
2013-09-07 03:30:00,65.5,62.2,29.86,SSE,160,0.0,0.0,89,0.00,,,0.00,0,Wunderground v.1.15,2013-09-07 10:30:00,
2013-09-07 03:39:00,65.2,61.9,29.85,SSE,159,0.0,0.0,89,0.00,,,0.00,0,Wunderground v.1.15,2013-09-07 10:39:00,
2013-09-07 03:44:00,64.9,61.3,29.85,SSE,159,0.0,0.0,88,0.00,,,0.00,0,Wunderground v.1.15,2013-09-07 10:44:00,
2013-09-07 03:54:00,64.8,61.5,29.85,SSE,159,0.0,0.0,89,0.00,,,0.00,0,Wunderground v.1.15,2013-09-07 10:54:00,
2013-09-07 03:59:00,64.6,61.3,29.85,SSE,160,0.0,0.0,89,0.00,,,0.00,0,Wunderground v.1.15,2013-09-07 10:59:00,
2013-09-07 04:09:00,64.3,61.0,29.85,SSE,159,0.0,0.0,89,0.00,,,0.00,0,Wunderground v.1.15,2013-09-07 11:09:00,
2013-09-07 04:14:00,64.0,60.7,29.85,SSE,159,0.0,0.0,89,0.00,,,0.00,0,Wunderground v.1.15,2013-09-07 11:14:00,
2013-09-07 04:24:00,63.4,60.1,29.85,SSE,160,0.0,0.0,89,0.00,,,0.00,0,Wunderground v.1.15,2013-09-07 11:24:00,
2013-09-07 04:29:00,63.2,59.9,29.85,SSE,159,0.0,0.0,89,0.00,,,0.00,0,Wunderground v.1.15,2013-09-07 11:29:00,
2013-09-07 04:35:00,63.0,59.7,29.85,SSE,161,0.0,0.0,89,0.00,,,0.00,0,Wunderground v.1.15,2013-09-07 11:35:00,
2013-09-07 04:44:00,62.4,58.8,29.85,SSE,158,0.0,0.0,88,0.00,,,0.00,0,Wunderground v.1.15,2013-09-07 11:44:00,
2013-09-07 04:50:00,62.1,58.5,29.85,SSE,159,0.0,0.0,88,0.00,,,0.00,0,Wunderground v.1.15,2013-09-07 11:50:00,
2013-09-07 04:59:00,61.8,57.9,29.85,SSE,160,0.0,0.0,87,0.00,,,0.00,0,Wunderground v.1.15,2013-09-07 11:59:00,
2013-09-07 05:04:00,61.9,58.0,29.85,SSE,159,0.0,0.0,87,0.00,,,0.00,0,Wunderground v.1.15,2013-09-07 12:04:00,
2013-09-07 05:14:00,61.9,57.7,29.85,SSE,160,1.0,2.0,86,0.00,,,0.00,0,Wunderground v.1.15,2013-09-07 12:14:00,
2013-09-07 05:19:00,61.8,57.2,29.85,SSE,159,1.0,1.0,85,0.00,,,0.00,0,Wunderground v.1.15,2013-09-07 12:19:00,
2013-09-07 05:29:00,61.3,55.8,29.85,SSE,160,1.0,2.0,82,0.00,,,0.00,0,Wunderground v.1.15,2013-09-07 12:29:00,
2013-09-07 05:34:00,61.2,55.7,29.85,SSE,159,2.0,4.0,82,0.00,,,0.00,0,Wunderground v.1.15,2013-09-07 12:34:00,
2013-09-07 05:40:00,61.4,55.5,29.86,SSE,158,4.0,5.0,81,0.00,,,0.00,0,Wunderground v.1.15,2013-09-07 12:40:00,
2013-09-07 05:49:00,61.7,55.1,29.86,SSE,159,3.0,3.0,79,0.00,,,0.00,0,Wunderground v.1.15,2013-09-07 12:49:00,
2013-09-07 05:59:00,61.7,54.4,29.86,SSE,159,3.0,3.0,77,0.00,,,0.00,0,Wunderground v.1.15,2013-09-07 12:59:00,
2013-09-07 06:05:00,61.5,53.9,29.86,SSE,159,4.0,4.0,76,0.00,,,0.00,0,Wunderground v.1.15,2013-09-07 13:05:00,
2013-09-07 06:14:00,61.8,54.2,29.86,SSE,159,3.0,4.0,76,0.00,,,0.00,0,Wunderground v.1.15,2013-09-07 13:14:00,
2013-09-07 06:20:00,62.0,54.0,29.86,SSE,159,4.0,6.0,75,0.00,,,0.00,0,Wunderground v.1.15,2013-09-07 13:20:00,
2013-09-07 06:29:00,62.1,54.1,29.86,SSE,159,5.0,5.0,75,0.00,,,0.00,0,Wunderground v.1.15,2013-09-07 13:29:00,
2013-09-07 06:35:00,62.0,54.0,29.87,SSE,159,5.0,5.0,75,0.00,,,0.00,0,Wunderground v.1.15,2013-09-07 13:35:00,
2013-09-07 06:44:00,62.0,54.0,29.87,SSE,162,4.0,4.0,75,0.00,,,0.00,0,Wunderground v.1.15,2013-09-07 13:44:00,
2013-09-07 06:50:00,62.1,54.1,29.87,SSE,157,4.0,4.0,75,0.00,,,0.00,5,Wunderground v.1.15,2013-09-07 13:50:00,
2013-09-07 06:59:00,62.2,54.2,29.87,SSE,157,4.0,4.0,75,0.00,,,0.00,11,Wunderground v.1.15,2013-09-07 13:59:00,
2013-09-07 07:04:00,62.5,54.5,29.87,SSE,162,3.0,4.0,75,0.00,,,0.00,16,Wunderground v.1.15,2013-09-07 14:04:00,
2013-09-07 07:14:00,63.0,55.3,29.88,SSE,160,3.0,3.0,76,0.00,,,0.00,30,Wunderground v.1.15,2013-09-07 14:14:00,
2013-09-07 07:19:00,63.4,55.7,29.88,SSE,162,2.0,2.0,76,0.00,,,0.00,21,Wunderground v.1.15,2013-09-07 14:19:00,
2013-09-07 07:29:00,64.2,56.5,29.88,SSE,162,0.0,0.0,76,0.00,,,0.00,39,Wunderground v.1.15,2013-09-07 14:29:00,
2013-09-07 07:34:00,65.0,57.2,29.88,SSE,161,0.0,0.0,76,0.00,,,0.00,83,Wunderground v.1.15,2013-09-07 14:34:00,
2013-09-07 07:40:00,66.0,58.2,29.88,SSE,157,0.0,0.0,76,0.00,,,0.00,100,Wunderground v.1.15,2013-09-07 14:40:00,
2013-09-07 07:49:00,69.2,60.2,29.89,SSE,159,0.0,0.0,73,0.00,,,0.00,137,Wunderground v.1.15,2013-09-07 14:49:00,
2013-09-07 07:59:00,72.6,61.0,29.89,SSE,158,0.0,0.0,67,0.00,,,0.00,172,Wunderground v.1.15,2013-09-07 14:59:00,
2013-09-07 08:04:00,74.1,60.2,29.89,SSE,163,0.0,0.0,62,0.00,,,0.00,190,Wunderground v.1.15,2013-09-07 15:04:00,
2013-09-07 08:14:00,75.9,59.1,29.89,SSW,213,0.0,0.0,56,0.00,,,0.00,223,Wunderground v.1.15,2013-09-07 15:14:00,
2013-09-07 08:19:00,76.8,58.4,29.89,SSE,164,0.0,0.0,53,0.00,,,0.00,239,Wunderground v.1.15,2013-09-07 15:19:00,
2013-09-07 08:25:00,77.4,58.9,29.89,SSE,159,0.0,0.0,53,0.00,,,0.00,257,Wunderground v.1.15,2013-09-07 15:25:00,
2013-09-07 08:34:00,79.3,59.0,29.89,SSE,162,0.0,3.0,50,0.00,,,0.00,290,Wunderground v.1.15,2013-09-07 15:34:00,
2013-09-07 08:40:00,79.7,58.8,29.89,SSE,159,1.0,1.0,49,0.00,,,0.00,306,Wunderground v.1.15,2013-09-07 15:40:00,
2013-09-07 08:49:00,80.4,58.9,29.89,SSE,157,1.0,2.0,48,0.00,,,0.00,336,Wunderground v.1.15,2013-09-07 15:49:00,
2013-09-07 08:54:00,80.7,59.2,29.89,SSW,213,1.0,2.0,48,0.00,,,0.00,352,Wunderground v.1.15,2013-09-07 15:54:00,
2013-09-07 09:04:00,81.2,59.1,29.89,SSW,213,1.0,2.0,47,0.00,,,0.00,387,Wunderground v.1.15,2013-09-07 16:04:00,
2013-09-07 09:09:00,81.6,59.4,29.89,SSW,213,1.0,1.0,47,0.00,,,0.00,403,Wunderground v.1.15,2013-09-07 16:09:00,
2013-09-07 09:19:00,82.0,58.6,29.89,SSW,213,0.0,0.0,45,0.00,,,0.00,432,Wunderground v.1.15,2013-09-07 16:19:00,
2013-09-07 09:25:00,80.4,60.1,29.89,SSW,213,1.0,2.0,50,0.00,,,0.00,448,Wunderground v.1.15,2013-09-07 16:25:00,
2013-09-07 09:34:00,74.0,61.5,29.89,SSW,213,3.0,3.0,65,0.00,,,0.00,476,Wunderground v.1.15,2013-09-07 16:34:00,
2013-09-07 09:40:00,73.4,61.3,29.89,SSE,157,3.0,3.0,66,0.00,,,0.00,492,Wunderground v.1.15,2013-09-07 16:40:00,
2013-09-07 09:49:00,72.9,61.3,29.89,SSW,213,2.0,2.0,67,0.00,,,0.00,522,Wunderground v.1.15,2013-09-07 16:49:00,
2013-09-07 09:55:00,72.6,61.4,29.89,SSW,213,2.0,3.0,68,0.00,,,0.00,536,Wunderground v.1.15,2013-09-07 16:55:00,
2013-09-07 10:04:00,72.8,61.6,29.89,SSE,159,2.0,2.0,68,0.00,,,0.00,564,Wunderground v.1.15,2013-09-07 17:04:00,
2013-09-07 10:14:00,73.6,60.7,29.89,SSE,160,2.0,3.0,64,0.00,,,0.00,592,Wunderground v.1.15,2013-09-07 17:14:00,
2013-09-07 10:19:00,73.6,61.5,29.89,SSE,162,3.0,5.0,66,0.00,,,0.00,603,Wunderground v.1.15,2013-09-07 17:19:00,
2013-09-07 10:25:00,74.0,61.0,29.89,SSE,155,3.0,5.0,64,0.00,,,0.00,617,Wunderground v.1.15,2013-09-07 17:25:00,
2013-09-07 10:34:00,73.3,59.9,29.89,SSW,213,3.0,4.0,63,0.00,,,0.00,640,Wunderground v.1.15,2013-09-07 17:34:00,
2013-09-07 10:40:00,74.1,60.7,29.89,SSE,157,2.0,2.0,63,0.00,,,0.00,650,Wunderground v.1.15,2013-09-07 17:40:00,
2013-09-07 10:49:00,75.6,60.3,29.88,SSE,158,3.0,5.0,59,0.00,,,0.00,675,Wunderground v.1.15,2013-09-07 17:49:00,
2013-09-07 10:54:00,75.9,60.1,29.89,SSW,213,4.0,5.0,58,0.00,,,0.00,687,Wunderground v.1.15,2013-09-07 17:54:00,
2013-09-07 11:04:00,75.9,61.5,29.89,SSE,162,4.0,4.0,61,0.00,,,0.00,707,Wunderground v.1.15,2013-09-07 18:04:00,
2013-09-07 11:09:00,75.8,60.0,29.88,SSE,166,3.0,3.0,58,0.00,,,0.00,717,Wunderground v.1.15,2013-09-07 18:09:00,
2013-09-07 11:19:00,75.8,58.5,29.88,SSE,163,3.0,4.0,55,0.00,,,0.00,737,Wunderground v.1.15,2013-09-07 18:19:00,
2013-09-07 11:25:00,76.1,62.1,29.88,SSW,213,4.0,4.0,62,0.00,,,0.00,747,Wunderground v.1.15,2013-09-07 18:25:00,
2013-09-07 11:34:00,75.9,62.4,29.88,SSE,159,4.0,4.0,63,0.00,,,0.00,763,Wunderground v.1.15,2013-09-07 18:34:00,
2013-09-07 11:39:00,76.0,61.6,29.88,SSE,163,4.0,4.0,61,0.00,,,0.00,772,Wunderground v.1.15,2013-09-07 18:39:00,
2013-09-07 11:49:00,75.9,61.9,29.88,SSE,161,4.0,4.0,62,0.00,,,0.00,788,Wunderground v.1.15,2013-09-07 18:49:00,
2013-09-07 11:54:00,76.1,62.1,29.87,SSW,213,4.0,5.0,62,0.00,,,0.00,793,Wunderground v.1.15,2013-09-07 18:54:00,
2013-09-07 12:04:00,75.2,61.3,29.87,SSE,157,5.0,5.0,62,0.00,,,0.00,807,Wunderground v.1.15,2013-09-07 19:04:00,
2013-09-07 12:09:00,74.9,61.0,29.87,SSW,213,5.0,5.0,62,0.00,,,0.00,812,Wunderground v.1.15,2013-09-07 19:09:00,
2013-09-07 12:15:00,74.8,61.4,29.87,SSE,157,5.0,6.0,63,0.00,,,0.00,817,Wunderground v.1.15,2013-09-07 19:15:00,
2013-09-07 12:24:00,74.5,61.1,29.87,SSW,213,5.0,7.0,63,0.00,,,0.00,828,Wunderground v.1.15,2013-09-07 19:24:00,
2013-09-07 12:30:00,74.6,61.6,29.87,SSE,155,5.0,6.0,64,0.00,,,0.00,831,Wunderground v.1.15,2013-09-07 19:30:00,
2013-09-07 12:39:00,75.2,61.7,29.87,SSW,213,5.0,5.0,63,0.00,,,0.00,840,Wunderground v.1.15,2013-09-07 19:39:00,
2013-09-07 12:44:00,75.6,60.7,29.87,WSW,239,4.0,5.0,60,0.00,,,0.00,842,Wunderground v.1.15,2013-09-07 19:44:00,
2013-09-07 12:54:00,77.2,60.8,29.86,SW,232,4.0,4.0,57,0.00,,,0.00,847,Wunderground v.1.15,2013-09-07 19:54:00,
2013-09-07 12:59:00,77.4,61.5,29.86,SW,226,4.0,5.0,58,0.00,,,0.00,849,Wunderground v.1.15,2013-09-07 19:59:00,
2013-09-07 13:09:00,78.0,62.0,29.86,SW,229,4.0,6.0,58,0.00,,,0.00,853,Wunderground v.1.15,2013-09-07 20:09:00,
2013-09-07 13:15:00,76.8,62.3,29.86,SW,218,6.0,7.0,61,0.00,,,0.00,851,Wunderground v.1.15,2013-09-07 20:15:00,
2013-09-07 13:24:00,75.9,61.0,29.86,SSW,213,6.0,7.0,60,0.00,,,0.00,849,Wunderground v.1.15,2013-09-07 20:24:00,
2013-09-07 13:29:00,76.1,61.2,29.86,SW,224,6.0,7.0,60,0.00,,,0.00,849,Wunderground v.1.15,2013-09-07 20:29:00,
2013-09-07 13:39:00,76.2,60.8,29.85,SW,224,6.0,6.0,59,0.00,,,0.00,846,Wunderground v.1.15,2013-09-07 20:39:00,
2013-09-07 13:45:00,76.6,61.7,29.85,SW,218,5.0,6.0,60,0.00,,,0.00,844,Wunderground v.1.15,2013-09-07 20:45:00,
2013-09-07 13:54:00,76.5,62.0,29.85,SW,231,5.0,6.0,61,0.00,,,0.00,838,Wunderground v.1.15,2013-09-07 20:54:00,
2013-09-07 14:04:00,76.0,62.0,29.84,SW,222,6.0,7.0,62,0.00,,,0.00,831,Wunderground v.1.15,2013-09-07 21:04:00,
2013-09-07 14:09:00,75.5,62.0,29.84,SW,236,6.0,6.0,63,0.00,,,0.00,828,Wunderground v.1.15,2013-09-07 21:09:00,
2013-09-07 14:15:00,74.8,61.8,29.84,SW,222,6.0,7.0,64,0.00,,,0.00,823,Wunderground v.1.15,2013-09-07 21:15:00,
2013-09-07 14:24:00,74.9,61.9,29.84,SW,230,6.0,6.0,64,0.00,,,0.00,812,Wunderground v.1.15,2013-09-07 21:24:00,
2013-09-07 14:30:00,75.3,61.8,29.84,SW,232,5.0,5.0,63,0.00,,,0.00,805,Wunderground v.1.15,2013-09-07 21:30:00,
2013-09-07 14:39:00,75.1,61.6,29.84,SW,224,6.0,6.0,63,0.00,,,0.00,793,Wunderground v.1.15,2013-09-07 21:39:00,
2013-09-07 14:44:00,75.3,60.9,29.84,WSW,244,6.0,6.0,61,0.00,,,0.00,786,Wunderground v.1.15,2013-09-07 21:44:00,
2013-09-07 14:54:00,75.1,59.8,29.83,West,272,6.0,11.0,59,0.00,,,0.00,768,Wunderground v.1.15,2013-09-07 21:54:00,
2013-09-07 15:00:00,75.3,60.0,29.83,WSW,243,6.0,7.0,59,0.00,,,0.00,761,Wunderground v.1.15,2013-09-07 22:00:00,
2013-09-07 15:09:00,76.1,58.8,29.83,WSW,253,7.0,7.0,55,0.00,,,0.00,744,Wunderground v.1.15,2013-09-07 22:09:00,
2013-09-07 15:19:00,75.1,59.3,29.83,WSW,251,7.0,8.0,58,0.00,,,0.00,724,Wunderground v.1.15,2013-09-07 22:19:00,
2013-09-07 15:24:00,74.8,59.0,29.83,WSW,257,8.0,8.0,58,0.00,,,0.00,710,Wunderground v.1.15,2013-09-07 22:24:00,
2013-09-07 15:30:00,74.3,59.0,29.83,West,259,9.0,9.0,59,0.00,,,0.00,701,Wunderground v.1.15,2013-09-07 22:30:00,
2013-09-07 15:39:00,74.4,59.6,29.83,SW,224,7.0,7.0,60,0.00,,,0.00,680,Wunderground v.1.15,2013-09-07 22:39:00,
2013-09-07 15:45:00,74.1,59.8,29.83,SW,233,6.0,7.0,61,0.00,,,0.00,670,Wunderground v.1.15,2013-09-07 22:45:00,
2013-09-07 15:54:00,72.8,59.9,29.83,WSW,238,7.0,8.0,64,0.00,,,0.00,645,Wunderground v.1.15,2013-09-07 22:54:00,
2013-09-07 15:59:00,72.8,60.3,29.83,SW,226,7.0,7.0,65,0.00,,,0.00,631,Wunderground v.1.15,2013-09-07 22:59:00,
2013-09-07 16:09:00,73.4,60.5,29.83,SW,218,5.0,5.0,64,0.00,,,0.00,606,Wunderground v.1.15,2013-09-07 23:09:00,
2013-09-07 16:14:00,73.3,60.8,29.83,WSW,239,5.0,9.0,65,0.00,,,0.00,594,Wunderground v.1.15,2013-09-07 23:14:00,
2013-09-07 16:24:00,72.0,61.3,29.83,SW,226,6.0,8.0,69,0.00,,,0.00,564,Wunderground v.1.15,2013-09-07 23:24:00,
2013-09-07 16:29:00,71.4,61.1,29.83,SW,223,5.0,6.0,70,0.00,,,0.00,550,Wunderground v.1.15,2013-09-07 23:29:00,
2013-09-07 16:39:00,71.2,60.5,29.82,WSW,247,5.0,5.0,69,0.00,,,0.00,526,Wunderground v.1.15,2013-09-07 23:39:00,
2013-09-07 16:44:00,71.2,60.5,29.82,WSW,241,6.0,8.0,69,0.00,,,0.00,508,Wunderground v.1.15,2013-09-07 23:44:00,
2013-09-07 16:54:00,71.5,61.2,29.82,SW,232,5.0,7.0,70,0.00,,,0.00,476,Wunderground v.1.15,2013-09-07 23:54:00,
2013-09-07 17:00:00,71.2,60.5,29.82,SW,232,5.0,5.0,69,0.00,,,0.00,461,Wunderground v.1.15,2013-09-08 00:00:00,
2013-09-07 17:09:00,70.4,60.5,29.82,SW,230,7.0,7.0,71,0.00,,,0.00,427,Wunderground v.1.15,2013-09-08 00:09:00,
2013-09-07 17:19:00,69.4,60.8,29.83,SW,222,7.0,7.0,74,0.00,,,0.00,396,Wunderground v.1.15,2013-09-08 00:19:00,
2013-09-07 17:24:00,69.3,61.0,29.82,SW,227,6.0,8.0,75,0.00,,,0.00,378,Wunderground v.1.15,2013-09-08 00:24:00,
2013-09-07 17:30:00,69.2,60.9,29.82,SSW,213,6.0,6.0,75,0.00,,,0.00,360,Wunderground v.1.15,2013-09-08 00:30:00,
2013-09-07 17:39:00,68.4,60.9,29.82,SW,229,7.0,7.0,77,0.00,,,0.00,327,Wunderground v.1.15,2013-09-08 00:39:00,
2013-09-07 17:49:00,67.8,60.7,29.82,SW,231,7.0,7.0,78,0.00,,,0.00,299,Wunderground v.1.15,2013-09-08 00:49:00,
2013-09-07 17:55:00,68.0,60.9,29.82,SW,224,7.0,10.0,78,0.00,,,0.00,283,Wunderground v.1.15,2013-09-08 00:55:00,
2013-09-07 18:04:00,67.7,61.0,29.82,SW,218,8.0,10.0,79,0.00,,,0.00,248,Wunderground v.1.15,2013-09-08 01:04:00,
2013-09-07 18:09:00,68.0,61.2,29.82,SW,222,7.0,7.0,79,0.00,,,0.00,227,Wunderground v.1.15,2013-09-08 01:09:00,
2013-09-07 18:19:00,68.0,61.2,29.82,SW,227,8.0,12.0,79,0.00,,,0.00,186,Wunderground v.1.15,2013-09-08 01:19:00,
2013-09-07 18:25:00,67.8,61.4,29.82,WSW,243,9.0,12.0,80,0.00,,,0.00,165,Wunderground v.1.15,2013-09-08 01:25:00,
2013-09-07 18:34:00,67.7,61.3,29.82,SW,222,8.0,9.0,80,0.00,,,0.00,127,Wunderground v.1.15,2013-09-08 01:34:00,
2013-09-07 18:39:00,67.5,61.5,29.82,SW,229,8.0,10.0,81,0.00,,,0.00,107,Wunderground v.1.15,2013-09-08 01:39:00,
2013-09-07 18:49:00,66.8,61.5,29.82,SW,218,8.0,8.0,83,0.00,,,0.00,72,Wunderground v.1.15,2013-09-08 01:49:00,
2013-09-07 18:54:00,66.7,61.4,29.82,SW,231,8.0,9.0,83,0.00,,,0.00,56,Wunderground v.1.15,2013-09-08 01:54:00,
2013-09-07 19:04:00,67.0,61.7,29.82,WSW,245,7.0,7.0,83,0.00,,,0.00,33,Wunderground v.1.15,2013-09-08 02:04:00,
2013-09-07 19:10:00,67.0,61.7,29.82,SW,226,6.0,6.0,83,0.00,,,0.00,23,Wunderground v.1.15,2013-09-08 02:10:00,
2013-09-07 19:19:00,66.8,61.5,29.82,SW,236,6.0,6.0,83,0.00,,,0.00,9,Wunderground v.1.15,2013-09-08 02:19:00,
2013-09-07 19:24:00,66.3,61.0,29.83,WSW,241,6.0,9.0,83,0.00,,,0.00,7,Wunderground v.1.15,2013-09-08 02:24:00,
2013-09-07 19:34:00,65.8,61.2,29.83,SW,235,7.0,9.0,85,0.00,,,0.00,0,Wunderground v.1.15,2013-09-08 02:34:00,
2013-09-07 19:39:00,65.7,61.1,29.83,SW,236,6.0,6.0,85,0.00,,,0.00,0,Wunderground v.1.15,2013-09-08 02:39:00,
2013-09-07 19:49:00,65.6,60.3,29.83,WSW,245,5.0,5.0,83,0.00,,,0.00,0,Wunderground v.1.15,2013-09-08 02:49:00,
2013-09-07 19:55:00,66.0,60.3,29.84,WSW,247,4.0,7.0,82,0.00,,,0.00,0,Wunderground v.1.15,2013-09-08 02:55:00,
2013-09-07 20:05:00,65.9,60.2,29.84,WSW,242,4.0,7.0,82,0.00,,,0.00,0,Wunderground v.1.15,2013-09-08 03:05:00,
2013-09-07 20:14:00,65.8,60.5,29.85,SW,230,3.0,4.0,83,0.00,,,0.00,0,Wunderground v.1.15,2013-09-08 03:14:00,
2013-09-07 20:19:00,65.6,60.6,29.85,SW,225,3.0,10.0,84,0.00,,,0.00,0,Wunderground v.1.15,2013-09-08 03:19:00,
2013-09-07 20:29:00,65.3,60.3,29.85,WSW,239,5.0,7.0,84,0.00,,,0.00,0,Wunderground v.1.15,2013-09-08 03:29:00,
2013-09-07 20:35:00,64.9,60.3,29.85,SW,234,5.0,7.0,85,0.00,,,0.00,0,Wunderground v.1.15,2013-09-08 03:35:00,
2013-09-07 20:44:00,64.4,59.8,29.86,WSW,240,5.0,8.0,85,0.00,,,0.00,0,Wunderground v.1.15,2013-09-08 03:44:00,
2013-09-07 20:49:00,64.4,60.1,29.86,SW,236,5.0,6.0,86,0.00,,,0.00,0,Wunderground v.1.15,2013-09-08 03:49:00,
2013-09-07 20:59:00,64.1,59.8,29.86,WSW,244,6.0,6.0,86,0.00,,,0.00,0,Wunderground v.1.15,2013-09-08 03:59:00,
2013-09-07 21:04:00,63.8,59.5,29.86,WSW,241,5.0,8.0,86,0.00,,,0.00,0,Wunderground v.1.15,2013-09-08 04:04:00,
2013-09-07 21:14:00,63.4,59.5,29.87,WSW,240,6.0,6.0,87,0.00,,,0.00,0,Wunderground v.1.15,2013-09-08 04:14:00,
2013-09-07 21:20:00,63.2,59.6,29.87,SW,228,5.0,5.0,88,0.00,,,0.00,0,Wunderground v.1.15,2013-09-08 04:20:00,
2013-09-07 21:29:00,63.2,59.9,29.87,SW,228,4.0,4.0,89,0.00,,,0.00,0,Wunderground v.1.15,2013-09-08 04:29:00,
2013-09-07 21:35:00,62.9,59.6,29.87,SW,229,4.0,4.0,89,0.00,,,0.00,0,Wunderground v.1.15,2013-09-08 04:35:00,
2013-09-07 21:44:00,62.2,59.2,29.87,SW,234,5.0,5.0,90,0.00,,,0.00,0,Wunderground v.1.15,2013-09-08 04:44:00,
2013-09-07 21:54:00,62.1,59.4,29.87,WSW,241,5.0,5.0,91,0.00,,,0.00,0,Wunderground v.1.15,2013-09-08 04:54:00,
2013-09-07 21:59:00,62.0,59.3,29.88,WSW,241,5.0,5.0,91,0.00,,,0.00,0,Wunderground v.1.15,2013-09-08 04:59:00,
2013-09-07 22:09:00,61.6,58.9,29.88,West,261,5.0,5.0,91,0.00,,,0.00,0,Wunderground v.1.15,2013-09-08 05:09:00,
2013-09-07 22:14:00,61.2,58.6,29.88,WSW,237,5.0,8.0,91,0.00,,,0.00,0,Wunderground v.1.15,2013-09-08 05:14:00,
2013-09-07 22:20:00,60.5,57.9,29.88,SSW,213,6.0,7.0,91,0.00,,,0.00,0,Wunderground v.1.15,2013-09-08 05:20:00,
2013-09-07 22:29:00,59.5,57.5,29.88,SW,230,8.0,14.0,93,0.00,,,0.00,0,Wunderground v.1.15,2013-09-08 05:29:00,
2013-09-07 22:39:00,59.3,57.6,29.88,SW,226,8.0,8.0,94,0.00,,,0.00,0,Wunderground v.1.15,2013-09-08 05:39:00,
2013-09-07 22:45:00,59.0,57.3,29.88,West,264,8.0,8.0,94,0.00,,,0.00,0,Wunderground v.1.15,2013-09-08 05:45:00,
2013-09-07 22:49:00,59.0,57.6,29.88,SW,222,8.0,9.0,95,0.00,,,0.00,0,Wunderground v.1.15,2013-09-08 05:49:00,
2013-09-07 22:54:00,59.3,57.9,29.88,SSW,213,6.0,9.0,95,0.00,,,0.00,0,Wunderground v.1.15,2013-09-08 05:54:00,
2013-09-07 22:59:00,59.7,58.3,29.88,SSW,208,7.0,9.0,95,0.00,,,0.00,0,Wunderground v.1.15,2013-09-08 05:59:00,
2013-09-07 23:09:00,59.9,58.8,29.88,SSW,194,12.0,16.0,96,0.00,,,0.00,0,Wunderground v.1.15,2013-09-08 06:09:00,
2013-09-07 23:15:00,59.7,58.6,29.88,SSW,193,15.0,16.0,96,0.00,,,0.00,0,Wunderground v.1.15,2013-09-08 06:15:00,
2013-09-07 23:24:00,59.4,58.3,29.88,SSW,213,15.0,16.0,96,0.00,,,0.00,0,Wunderground v.1.15,2013-09-08 06:24:00,
2013-09-07 23:34:00,58.7,57.6,29.88,SSW,213,13.0,16.0,96,0.00,,,0.00,0,Wunderground v.1.15,2013-09-08 06:34:00,
2013-09-07 23:39:00,58.4,57.3,29.89,SSW,213,13.0,17.0,96,0.00,,,0.00,0,Wunderground v.1.15,2013-09-08 06:39:00,
2013-09-07 23:45:00,57.8,56.7,29.89,SSW,203,14.0,17.0,96,0.00,,,0.00,0,Wunderground v.1.15,2013-09-08 06:45:00,
2013-09-07 23:54:00,58.0,57.2,29.89,SW,233,11.0,13.0,97,0.00,,,0.00,0,Wunderground v.1.15,2013-09-08 06:54:00,
2013-09-07 23:59:00,57.9,57.1,29.89,SW,233,10.0,10.0,97,0.00,,,0.00,0,Wunderground v.1.15,2013-09-08 06:59:00,